SES-9

Last updated on Mon Sep 15 2025 00:02:48 GMT+0000 (Coordinated Universal Time)

1 41380U 16013A 25256.73002959 -.00000355 00000+0 00000+0 0 9994 2 41380 0.0239 276.8072 0001643 224.0688 223.1931 1.00271280 34669
UTC large
Height (km)
Speed (km/s)
/
Latitude / Longitude
Inclination (degrees)
Orbital Period (minutes)
Azimuth
Elevation
Range (km)
Doppler Factor

Next 0 passes for location: London (51.5072 / 0.1276)

Sorry there are no passes over London.